Home > Weather > Dubai > Past weeks

Flag for United Arab Emirates Past Weather in Dubai, Dubai, United Arab Emirates — Yesterday and Last 2 Weeks

Now
88 °F

Clear.


Feels Like: 89 °F
Forecast: 88 / 96 °F
Wind: 7 mph from South

Location: Dubai International Airport

Current Time: May 31, 2016 at 6:06:40 AM

Latest Report: May 31, 2016 at 5:00 AM


Visibility: 10 mi

Pressure: 29.56 "Hg

Humidity: 46%

Dew Point: 64 °F

Location of DubaiLocation

Past Weather in Dubai — Graph

°F

Dubai Temperature Yesterday

Maximum temperature yesterday: 104 °F (at 11:00 AM)
Minimum temperature yesterday: 84 °F (at 5:00 AM)
Average temperature yesterday: 95 °F

High & Low Weather Summary for the Past Weeks

 TemperatureHumidityPressure
High108 °F (May 17, 11:00 AM)89% (May 24, 3:00 AM)29.74 "Hg (May 24, 3:00 AM)
Low77 °F (May 24, 6:00 AM)9% (May 19, 11:00 AM)29.53 "Hg (May 20, 5:00 PM)
Average91 °F47%29.62 "Hg
* Reported May 16 5:00 AM — May 31 5:00 AM, Dubai, Weather by CustomWeather, © 2016

Note: Actual official high and low records may vary slightly from our data, if they occured in-between our weather recording intervals... More about our weather records

Advertising

Dubai Weather History for the Previous 24 Hours

Scroll right to see more
 ConditionsComfort  
Time TempWeatherWind HumidityBarometerVisibility
5:00 AM
Tue, May 31
88 °FClear.7 mph46%29.56 "Hg10 mi
4:00 AM88 °FPassing clouds.6 mph46%29.53 "HgN/A
3:00 AM90 °FPassing clouds.8 mph43%29.53 "HgN/A
2:00 AM91 °FClear.6 mph41%29.53 "Hg10 mi
1:00 AM95 °FPassing clouds.6 mph34%29.56 "HgN/A
12:00 AM95 °FPassing clouds.5 mph36%29.56 "HgN/A
11:00 PM
Mon, May 30
97 °FPassing clouds.7 mph34%29.59 "HgN/A
10:00 PM97 °FPassing clouds.3 mph34%29.59 "HgN/A
9:00 PM97 °FPassing clouds.5 mph34%29.56 "HgN/A
8:00 PM97 °FPassing clouds.5 mph37%29.56 "HgN/A
7:00 PM99 °FSunny.9 mph29%29.53 "Hg10 mi
6:00 PM100 °FSunny.10 mph25%29.53 "Hg10 mi
5:00 PM100 °FSunny.10 mph31%29.53 "Hg10 mi
4:00 PM102 °FPassing clouds.12 mph27%29.53 "HgN/A
3:00 PM102 °FSunny.12 mph31%29.56 "Hg10 mi
2:00 PM102 °FPassing clouds.10 mph26%29.56 "HgN/A
1:00 PM104 °FPassing clouds.12 mph20%29.56 "HgN/A
12:00 PM104 °FSunny.8 mph20%29.59 "Hg10 mi
11:00 AM104 °FClear.7 mph17%29.59 "Hg5 mi
10:00 AM97 °FClear.8 mph28%29.62 "Hg5 mi
9:00 AM93 °FClear.8 mph32%29.59 "Hg5 mi
8:00 AM90 °FPassing clouds.8 mph31%29.59 "HgN/A
7:00 AM86 °FPassing clouds.7 mph33%29.59 "HgN/A
6:00 AM84 °FSunny.10 mph31%29.56 "Hg10 mi
Weather by CustomWeather, © 2016

See weather overviewHow to use our weather pages